Flag for Germany Weather past 2 weeks in Rheinberg, North Rhine-Westphalia, Germany

Now
73 °F

Scattered clouds.


Feels Like: 77 °F
Forecast: 59 / 76 °F
Wind: 6 mph from Southeast

Location: Duesseldorf

Current Time: Sep 16, 2014 at 3:55:59 PM

Latest Report: Sep 16, 2014 at 3:00 PM


Visibility: 16 mi

Pressure: 29.96 "Hg

Humidity: 59%

Dew point: 58 °F

Location of RheinbergLocation

Historic Weather in Rheinberg — Graph

°F

Rheinberg temperature yesterday

Maximum temperature yesterday: 72 °F (at 5:00 PM)
Minimum temperature yesterday: 51 °F (at 8:00 AM)
Average temperature yesterday: 62 °F

Past Weeks' High & Low Weather Summary

 TemperatureHumidityPressure
High75 °F (Sep 5, 6:00 PM)96% (Sep 2, 2:00 AM)30.25 "Hg (Sep 2, 2:00 AM)
Low46 °F (Sep 12, 8:00 AM)49% (Sep 11, 6:00 PM)29.89 "Hg (Sep 6, 6:00 PM)
Average61 °F79%30.09 "Hg
* Reported Sep 1 2:00 PM — Sep 16 2:00 PM, Rheinberg, Weather by CustomWeather, © 2014

Note: Actual official high and low records may vary slightly from our data, if they occured in-between our weather recording intervals... More about our weather records

Advertising

Rheinberg weather history for previous 24 hours

 ConditionsComfort  
Time TempWeatherWind HumidityBarometerVisibility
2:00 PM
Sep 16
72 °FOvercast.3 mph64%29.97 "Hg16 mi
1:00 PM72 °FScattered clouds.1 mph63%29.98 "Hg16 mi
12:00 PM72 °FScattered clouds.1 mph63%29.99 "Hg12 mi
11:00 AM69 °FScattered clouds.1 mph71%30.00 "Hg12 mi
10:00 AM67 °FScattered clouds.1 mph77%30.00 "Hg12 mi
9:00 AM63 °FScattered clouds.1 mph87%30.00 "Hg12 mi
8:00 AM60 °FFog.1 mph92%30.00 "Hg12 mi
7:00 AM61 °FPassing clouds.1 mph92%30.00 "Hg12 mi
6:00 AM61 °FOvercast.1 mph91%29.99 "Hg16 mi
4:00 AM60 °FOvercast.1 mph93%30.00 "Hg22 mi
3:00 AM61 °FOvercast.1 mph91%30.00 "Hg22 mi
2:00 AM61 °FOvercast.1 mph92%30.00 "Hg22 mi
1:00 AM61 °FOvercast.1 mph90%30.01 "Hg22 mi
12:00 AM62 °FOvercast.1 mph91%30.01 "Hg22 mi
11:00 PM
Sep 15
62 °FPassing clouds.1 mph91%30.01 "Hg22 mi
10:00 PM63 °FPassing clouds.2 mph89%30.01 "Hg22 mi
9:00 PM65 °FOvercast.2 mph85%30.00 "Hg19 mi
8:00 PM64 °FPassing clouds.2 mph85%29.99 "Hg19 mi
7:00 PM68 °FOvercast.2 mph75%29.99 "Hg16 mi
6:00 PM69 °FOvercast.3 mph70%29.99 "Hg19 mi
5:00 PM72 °FPartly sunny.3 mph65%29.99 "Hg16 mi
4:00 PM71 °FPartly sunny.3 mph65%30.00 "Hg16 mi
3:00 PM70 °FPartly sunny.2 mph67%30.01 "Hg19 mi
Weather by CustomWeather, © 2014

See weather overviewHow to use our weather pages